Starlink 32737

operational
NORAD ID: 62444 Int'l Des: 2024-251 Owner: SPXS Country: US Constellation: starlink
LEOCIRCULAR

Über Starlink 32737

Beschreibung wird geladen...

Live-Position

3D-Globus wird geladen...

Nächste Überflüge

Höhenverlauf

Altitude vs Time

uPlot chart will show altitude changes over time

Zweizeiliger Elementsatz

1 62444U 24251N 25351.28111459 .00026139 00000-0 89149-3 0 9996
2 62444 53.1615 355.7841 0001755 51.3986 308.7172 15.30202785 55366
Epoch: 17. Dez. 2025 • Age: 8 hours

Aktueller Status

Höhe 478.5 km
Geschwindigkeit 7.63 km/s
Subsatellitenpunkt -14.12°S, 39.39°E
Startdatum 29. Dez. 2024
Alter 0.9 years
Typ internet

Technische Details

Klassifizierung Payload
Masse 730.00 kg
Trockenmasse 700.00 kg
Gesamtmasse 730.00 kg
Länge 0.30 m
Durchmesser 4.10 m
Spannweite 29.00 m
Form Box + pan
Hersteller SPXS
Bus-Typ Starlink V2M
Phasenstatus In Orbit
Besitzer/Staat SPXS/US

Große Konstellationen

Loading constellations...